• MPC Preparation (Info)

  • MPEC 2016-O105: 2014 WN509

    The following Minor Planet Electronic Circular may be linked-to from your own Web pages, but must not otherwise be redistributed electronically.

    A form allowing access to any MPEC is at the bottom of this page.


    Read MPEC 2016-O104 Read MPEC 2016-O106


    M.P.E.C. 2016-O105                               Issued 2016 July 17, 02:51 UT
    
         The Minor Planet Electronic Circulars contain information on unusual
             minor planets and routine data on comets.  They are published
        on behalf of Division F of the International Astronomical Union by the
              Minor Planet Center, Smithsonian Astrophysical Observatory,
                              Cambridge, MA 02138, U.S.A.
    
                 Prepared using the Tamkin Foundation Computer Network
    
                                  MPC@CFA.HARVARD.EDU
                URL https://www.minorplanetcenter.net/    ISSN 1523-6714
    
                                      2014 WN509
    
    Observations:
         K14Wo9N  C2011 01 30.41670 09 57 25.696+06 20 44.82         22.2 wLEO105F51
         K14Wo9N  C2011 01 30.43278 09 57 25.618+06 20 44.95         22.5 wLEO105F51
         K14Wo9N  C2011 01 30.44757 09 57 25.561+06 20 45.42         22.4 wLEO105F51
         K14Wo9N  C2011 02 04.44854 09 57 02.845+06 22 30.26         22.5 wLEO105F51
         K14Wo9N  C2011 02 04.46282 09 57 02.769+06 22 30.70         22.3 wLEO105F51
         K14Wo9N  C2011 02 04.47719 09 57 02.697+06 22 30.89         22.4 wLEO105F51
         K14Wo9N  C2011 02 04.49159 09 57 02.637+06 22 31.17         22.4 wLEO105F51
         K14Wo9N  C2012 02 14.37197 10 01 19.397+05 52 02.47         21.9 wLEO105F51
         K14Wo9N  C2012 02 14.38612 10 01 19.320+05 52 03.05         22.1 wLEO105F51
         K14Wo9N  C2012 02 14.40031 10 01 19.258+05 52 03.15         22.2 wLEO105F51
         K14Wo9N  C2013 03 04.29984 10 04 54.630+05 25 32.11         22.3 wLEO105F51
         K14Wo9N  C2013 03 04.31406 10 04 54.559+05 25 32.40         22.2 wLEO105F51
         K14Wo9N  C2013 03 04.32831 10 04 54.493+05 25 32.69         22.1 wLEO105F51
         K14Wo9N  C2013 03 04.34257 10 04 54.433+05 25 33.15         22.1 wLEO105F51
         K14Wo9N* C2014 11 27.61454 10 19 50.557+03 58 48.49         22.1 wLEO105F51
         K14Wo9N  C2014 11 27.62482 10 19 50.571+03 58 48.17         22.4 wLEO105F51
         K14Wo9N  C2014 11 27.63510 10 19 50.572+03 58 47.80         22.3 wLEO105F51
         K14Wo9N  C2014 11 27.64542 10 19 50.580+03 58 48.03         22.3 wLEO105F51
         K14Wo9N  C2015 01 16.47921 10 18 28.539+03 58 46.88         22.1 wLEO105F51
         K14Wo9N  C2015 01 16.49063 10 18 28.492+03 58 47.11         22.3 wLEO105F51
         K14Wo9N  C2015 01 16.50207 10 18 28.462+03 58 47.17         22.3 wLEO105F51
         K14Wo9N  C2015 01 16.51350 10 18 28.408+03 58 47.41         22.4 wLEO105F51
         K14Wo9N  C2015 01 18.47278 10 18 21.302+03 59 14.22         22.2 wLEO105F51
         K14Wo9N  C2015 01 18.48568 10 18 21.249+03 59 14.66         22.2 wLEO105F51
         K14Wo9N  C2015 01 18.49859 10 18 21.202+03 59 14.60         22.2 wLEO105F51
         K14Wo9N  C2015 01 18.51154 10 18 21.149+03 59 14.79         21.8 wLEO105F51
         K14Wo9N  C2015 03 14.36328 10 14 18.184+04 20 16.37         21.9 wLEO105F51
         K14Wo9N  C2015 03 14.38752 10 14 18.078+04 20 17.02         22.4 wLEO105F51
         K14Wo9N  C2015 03 14.39963 10 14 18.061+04 20 17.38         22.2 wLEO105F51
    
    Observer details:
    F51 Pan-STARRS 1, Haleakala.  Observers B. Gibson, T. Goggia, N. Primak,
        A. Schultz, M. Willman.  Measurers K. Chambers, S. Chastel, Y.-T. Chen,
        L. Denneau, H. Flewelling, M. Holman, M. Huber, R. Jedicke, M. Lackner,
        E. Lilly, H.-W. Lin, E. Magnier, M. Micheli, M. Payne, P. Veres,
        R. Wainscoat, C. Waters, R. Weryk.  1.8-m Ritchey-Chretien + CCD.
    
    Orbital elements:
    2014 WN509
    Epoch 2016 July 31.0 TT = JDT 2457600.5                 MPC
    M 298.98480              (2000.0)            P               Q
    n   0.00355114     Peri.  306.53530     -0.72196754     +0.68093594
    a  42.5491553      Node   276.73776     -0.58871455     -0.69779714
    e   0.0560978      Incl.    7.10523     -0.36356299     -0.22227323
    P 278              H    5.9           G   0.15           U   2
    Residuals in seconds of arc
    110130 F51  0.1-  0.0     130304 F51  0.0   0.2+    150116 F51  0.0   0.0
    110130 F51  0.2-  0.2-    130304 F51  0.0   0.1+    150116 F51  0.2-  0.1+
    110130 F51  0.0   0.0     130304 F51  0.1-  0.0     150118 F51  0.1-  0.3-
    110204 F51  0.2+  0.0     130304 F51  0.0   0.1+    150118 F51  0.1-  0.0
    110204 F51  0.1+  0.2+    141127 F51  0.0   0.1+    150118 F51  0.1-  0.2-
    110204 F51  0.0   0.0     141127 F51  0.2+  0.0     150118 F51  0.2-  0.2-
    110204 F51  0.1+  0.0     141127 F51  0.1+  0.3-    150314 F51  0.0   0.2+
    120214 F51  0.1+  0.2-    141127 F51  0.2+  0.1+    150314 F51  0.0   0.2+
    120214 F51  0.1-  0.1+    150116 F51  0.1-  0.0     150314 F51  0.5+  0.2+
    120214 F51  0.0   0.2-    150116 F51  0.2-  0.1+
    
    Ephemeris:
    2014 WN509               a,e,i = 42.55, 0.06, 7                  q = 40.162
    Date    TT    R. A. (2000) Decl.     Delta      r     Elong.  Phase     V
    2016 06 17    10 17 37.5 +04 06 17  41.8604 41.5051    68.9     1.3    22.3
    ...
    2016 07 02    10 18 28.8 +04 03 10  42.0794 41.5031    54.9     1.1    22.3
    ...
    2016 07 10    10 19 02.6 +04 00 44  42.1824 41.5020    47.5     1.0    22.3
    ...
    2016 07 16    10 19 30.4 +03 58 36  42.2517 41.5012    41.9     0.9    22.3
    2016 07 17    10 19 35.2 +03 58 14  42.2625 41.5011    41.0     0.9    22.3
    2016 07 18    10 19 40.1 +03 57 50  42.2731 41.5009    40.1     0.9    22.3
    ...
    2016 07 24    10 20 10.3 +03 55 22  42.3323 41.5001    34.6     0.8    22.3
    ...
    2016 08 01    10 20 53.0 +03 51 43  42.3984 41.4990    27.3     0.6    22.2
    ...
    2016 08 16    10 22 18.5 +03 43 55  42.4788 41.4970    14.0     0.3    22.2
    
    A. U. Tomatic                (C) Copyright 2016 MPC           M.P.E.C. 2016-O105
    

    Read MPEC 2016-O104 Read MPEC 2016-O106


    MPEC number:

    Enter an MPEC number in one of the following forms:

    • 1997-B01 (the full form)
    • J97B01 (the packed version of the full form)
    • B01 (the abbreviated form)